STARLINK-2741, 48684

Orbit data source: Space-Track

STARLINK-2741, 48684 is a payload satellite owned by SpaceX/Seattle (US) in LEO that was launched on Wed, 26 May 2021 UTC via an FALCON 9 launch vehicle from the Air Force Eastern Test Range (AFETR). Payload-class satellites include a variety of spacecraft equipped with specific instruments for various scientific and technological missions. These include communications satellites like Starlink; space stations such as the ISS; scientific satellites like the Hubble; Earth observation satellites from companies like Planet Labs, Umbra, and HawkEye 360; GPS; miniature CubeSats for education and research; and military/defense satellites.

Loading next visibility...
Identifier
48684, 2021-044AY
Orbit
LEO
Country
Flag of USUS
Related business
Manufacturer
SpaceX/Seattle
Mission
Operational Commercial Communications
Bus & Motor
STARLINK, Unknown motor
Mass
260 kg wet, ~248 kg dry
Launch date (UTC)
2021-05-26 (5 years ago)
Launch vehicle
FALCON 9
Launch site
Air Force Eastern Test Range (AFETR)
Object type
Payload
Rocket body
Debris
Shape & HBR
Box + 1 Pan, 10.1 m
Radar Cross Section
13.562 m², Large (>1 m²)

Expand to show TLE details & history
Last TLE update: 2 days ago

TLE from 2 days ago
0 STARLINK-2741
1 48684U 21044AY  26171.37936609  .00000206  00000-0  18395-4 0  9999
2 48684  53.1598 320.1790 0001376  83.0408 277.0750 15.31704685280069
Epoch: 2026-06-20T09:06Z
TLE epoch observation values (Epoch: 2026-06-20T09:06:17.230Z)
Latitude
Longitude
-84.98762°
Altitude
471.51 km
Speed
7.632 km/s
True Right ascension
21h 20m 42s
True Declination
0° 00' 00"
Sunlit
Object was in full shadow at epoch
Visualization orbit readout
Latitude
Unknown
Longitude
Unknown
Altitude
Unknown
Speed
Unknown
Apparent Right ascension
Unknown
Apparent Declination
Unknown
Sunlit
N/A
Visualization observer readout
Local Sidereal Time
21:36:39
Azimuth
Unknown
Elevation
Unknown
Doppler factor
Unknown
Orbital elements
Apogee altitude
471.925 km
Perigee altitude
470.04 km
Semi-major axis
6,849.12 km
Eccentricity
0.00014
Inclination
53.1598°
RAAN
320.179°
Arg. of periapsis
83.0408°
True anomaly
277.05935°
Mean anomaly
277.075°
Eccentric anomaly
277.06718°
Mean motion
3.82905 °/min
Orbital period
94.02 mins
BSTAR
0.000018395
Loading maneuver chart data...
Computing Atmospheric mass density...

Documentation

Showing up to 5 results
|